AAL826 KRDU-KRDU

Flight info

Callsign AAL826
Flight time N/A
Altitude 11000
Route ROZBO5 ROZBO
Aircraft B738/M-VGDW/C

Departure

Time 2026-05-07 16:56
Airport Raleigh-Durham International Airport (KRDU)

Arrival

Time N/A
Airport Raleigh-Durham International Airport (KRDU)
Time Latitude Longitude Altitude Speed Heading
2026-05-07 16:39 35.87526 -78.79681 382 ft 0 kts 97°
2026-05-07 16:42 35.87526 -78.79691 382 ft 2 kts 97°
2026-05-07 16:43 35.87529 -78.79709 381 ft 1 kts 97°
2026-05-07 16:43 35.87530 -78.79721 381 ft 2 kts 84°
2026-05-07 16:43 35.87524 -78.79739 380 ft 2 kts 52°
2026-05-07 16:43 35.87513 -78.79751 380 ft 2 kts 23°
2026-05-07 16:44 35.87499 -78.79755 380 ft 2 kts 355°
2026-05-07 16:44 35.87484 -78.79749 381 ft 2 kts 326°
2026-05-07 16:44 35.87478 -78.79744 381 ft 1 kts 310°
2026-05-07 16:44 35.87475 -78.79739 381 ft 0 kts 314°
2026-05-07 16:51 35.87513 -78.79781 379 ft 16 kts 322°
2026-05-07 16:51 35.87637 -78.79766 377 ft 25 kts 39°
2026-05-07 16:51 35.87793 -78.79577 381 ft 37 kts 45°
2026-05-07 16:51 35.87994 -78.79324 387 ft 44 kts 44°
2026-05-07 16:52 35.88231 -78.79036 393 ft 48 kts 44°
2026-05-07 16:52 35.88444 -78.78773 400 ft 40 kts 44°
2026-05-07 16:52 35.88637 -78.78537 400 ft 42 kts 46°
2026-05-07 16:52 35.88864 -78.78256 397 ft 50 kts 45°
2026-05-07 16:53 35.89112 -78.77949 401 ft 46 kts 46°
2026-05-07 16:53 35.89259 -78.77753 404 ft 19 kts 33°
2026-05-07 16:53 35.89286 -78.77743 404 ft 0 kts
2026-05-07 16:53 35.89290 -78.77743 404 ft 4 kts 358°
2026-05-07 16:54 35.89350 -78.77808 402 ft 17 kts 271°
2026-05-07 16:54 35.89284 -78.77925 399 ft 17 kts 224°
2026-05-07 16:54 35.89086 -78.78168 395 ft 75 kts 225°
2026-05-07 16:54 35.88553 -78.78828 396 ft 140 kts 226°
2026-05-07 16:55 35.87729 -78.79778 449 ft 183 kts 224°
2026-05-07 16:55 35.86794 -78.80952 944 ft 201 kts 229°
2026-05-07 16:55 35.85763 -78.82192 650 ft 211 kts 221°
2026-05-07 16:55 35.84630 -78.83349 550 ft 214 kts 220°
2026-05-07 16:56 35.83412 -78.84574 599 ft 236 kts 220°
2026-05-07 16:56 35.82110 -78.85898 866 ft 249 kts 220°
2026-05-07 16:56 35.79054 -78.88730 1602 ft 298 kts 202°
2026-05-07 16:57 35.77033 -78.89111 2382 ft 298 kts 173°
2026-05-07 16:57 35.75089 -78.88329 2462 ft 288 kts 146°
2026-05-07 16:57 35.73557 -78.86885 2460 ft 270 kts 137°
2026-05-07 16:57 35.72152 -78.85444 2463 ft 254 kts 141°
2026-05-07 16:58 35.70726 -78.84251 2465 ft 240 kts 147°
2026-05-07 16:58 35.69325 -78.83259 2462 ft 226 kts 149°
2026-05-07 16:58 35.67985 -78.82346 2462 ft 216 kts 149°
2026-05-07 16:58 35.66652 -78.81444 2462 ft 218 kts 148°
2026-05-07 16:59 35.65350 -78.80504 2457 ft 219 kts 147°
2026-05-07 16:59 35.64033 -78.79521 2450 ft 220 kts 147°
2026-05-07 16:59 35.62708 -78.78545 2454 ft 223 kts 148°
2026-05-07 16:59 35.61374 -78.77584 2458 ft 224 kts 150°
2026-05-07 17:00 35.60012 -78.76634 2464 ft 222 kts 150°
2026-05-07 17:00 35.58653 -78.75716 2462 ft 221 kts 149°
2026-05-07 17:00 35.57294 -78.74786 2447 ft 223 kts 149°
2026-05-07 17:00 35.55950 -78.73855 2448 ft 224 kts 150°
2026-05-07 17:01 35.54592 -78.72929 2465 ft 226 kts 152°
2026-05-07 17:01 35.53214 -78.71966 2458 ft 225 kts 150°
2026-05-07 17:01 35.51858 -78.70981 2457 ft 225 kts 153°
2026-05-07 17:01 35.50405 -78.70303 2465 ft 224 kts 172°
2026-05-07 17:02 35.48859 -78.70136 2460 ft 222 kts 181°
2026-05-07 17:02 35.47324 -78.70051 2458 ft 216 kts 179°
2026-05-07 17:02 35.45857 -78.69883 2451 ft 209 kts 177°
2026-05-07 17:02 35.44407 -78.69656 2451 ft 212 kts 176°
2026-05-07 17:03 35.42931 -78.69420 2463 ft 214 kts 176°
2026-05-07 17:03 35.41470 -78.69204 2466 ft 212 kts 177°
2026-05-07 17:03 35.39995 -78.69012 2454 ft 211 kts 178°
2026-05-07 17:03 35.38538 -78.68821 2465 ft 210 kts 178°
2026-05-07 17:04 35.37073 -78.68617 2466 ft 213 kts 178°
2026-05-07 17:04 35.35542 -78.68404 2449 ft 223 kts 177°
2026-05-07 17:04 35.33940 -78.68180 2467 ft 246 kts 177°
2026-05-07 17:04 35.32197 -78.67931 2465 ft 257 kts 177°
2026-05-07 17:05 35.30412 -78.67666 2454 ft 258 kts 176°
2026-05-07 17:05 35.28611 -78.67384 2456 ft 261 kts 176°
2026-05-07 17:05 35.26791 -78.67107 2458 ft 262 kts 176°
2026-05-07 17:05 35.24970 -78.66843 2461 ft 260 kts 177°
2026-05-07 17:06 35.23188 -78.66583 2461 ft 260 kts 176°
2026-05-07 17:06 35.21395 -78.66318 2461 ft 259 kts 177°
2026-05-07 17:06 35.19585 -78.66065 2455 ft 258 kts 177°
2026-05-07 17:06 35.17804 -78.65819 2458 ft 259 kts 177°
2026-05-07 17:07 35.16013 -78.65558 2453 ft 258 kts 177°
2026-05-07 17:07 35.14224 -78.65305 2449 ft 255 kts 177°
2026-05-07 17:07 35.12446 -78.65056 2453 ft 258 kts 177°
2026-05-07 17:07 35.10680 -78.64798 2449 ft 256 kts 177°
2026-05-07 17:08 35.08904 -78.64543 2450 ft 256 kts 177°
2026-05-07 17:08 35.07136 -78.64297 2451 ft 255 kts 177°
2026-05-07 17:08 35.05367 -78.64048 2454 ft 256 kts 178°
2026-05-07 17:08 35.03607 -78.63797 2457 ft 256 kts 178°
2026-05-07 17:09 35.01831 -78.63541 2452 ft 257 kts 177°
2026-05-07 17:09 35.00041 -78.63283 2452 ft 256 kts 178°
2026-05-07 17:09 34.98281 -78.63034 2450 ft 253 kts 178°
2026-05-07 17:09 34.96546 -78.62720 2450 ft 257 kts 171°
2026-05-07 17:10 34.94909 -78.61791 2457 ft 268 kts 143°
2026-05-07 17:10 34.93693 -78.59987 2464 ft 276 kts 125°
2026-05-07 17:10 34.92748 -78.57970 2456 ft 275 kts 123°
2026-05-07 17:10 34.91768 -78.55990 2458 ft 273 kts 126°
2026-05-07 17:11 34.90687 -78.54050 2458 ft 274 kts 130°
2026-05-07 17:11 34.89569 -78.52199 2460 ft 275 kts 130°
2026-05-07 17:11 34.88440 -78.50331 2464 ft 274 kts 130°
2026-05-07 17:11 34.87333 -78.48435 2460 ft 275 kts 128°
2026-05-07 17:12 34.86243 -78.46500 2456 ft 276 kts 128°
2026-05-07 17:12 34.85170 -78.44570 2450 ft 273 kts 128°
2026-05-07 17:12 34.84112 -78.42692 2458 ft 270 kts 128°
2026-05-07 17:12 34.83025 -78.40797 2458 ft 276 kts 129°
2026-05-07 17:13 34.81929 -78.38888 2453 ft 275 kts 129°
2026-05-07 17:13 34.80806 -78.36964 2416 ft 275 kts 130°
2026-05-07 17:13 34.79696 -78.35098 2416 ft 272 kts 130°
2026-05-07 17:13 34.78596 -78.33231 2411 ft 274 kts 130°
2026-05-07 17:14 34.77488 -78.31339 2415 ft 277 kts 130°
2026-05-07 17:14 34.76375 -78.29433 2404 ft 272 kts 130°
2026-05-07 17:14 34.75287 -78.27555 2408 ft 269 kts 130°
2026-05-07 17:14 34.74190 -78.25658 2402 ft 277 kts 130°
2026-05-07 17:15 34.73089 -78.23782 2413 ft 275 kts 130°
2026-05-07 17:15 34.71972 -78.21895 2415 ft 274 kts 130°
2026-05-07 17:15 34.70863 -78.20019 2414 ft 275 kts 130°
2026-05-07 17:15 34.69740 -78.18121 2409 ft 274 kts 131°
2026-05-07 17:16 34.68615 -78.16242 2421 ft 274 kts 131°
2026-05-07 17:16 34.67495 -78.14401 2423 ft 274 kts 132°
2026-05-07 17:16 34.66350 -78.12518 2425 ft 274 kts 131°
2026-05-07 17:16 34.65234 -78.10644 2419 ft 274 kts 131°
2026-05-07 17:17 34.64125 -78.08758 2427 ft 275 kts 131°
2026-05-07 17:17 34.63010 -78.06866 2428 ft 275 kts 131°
2026-05-07 17:17 34.61903 -78.04989 2429 ft 275 kts 131°
2026-05-07 17:17 34.60785 -78.03089 2432 ft 277 kts 131°
2026-05-07 17:18 34.59671 -78.01202 2433 ft 276 kts 131°
2026-05-07 17:18 34.58554 -77.99313 2439 ft 275 kts 131°
2026-05-07 17:18 34.57435 -77.97423 2433 ft 276 kts 131°
2026-05-07 17:18 34.56308 -77.95525 2436 ft 275 kts 131°
2026-05-07 17:19 34.55201 -77.93645 2439 ft 276 kts 131°
2026-05-07 17:19 34.54078 -77.91729 2434 ft 275 kts 131°
2026-05-07 17:19 34.52977 -77.89858 2434 ft 276 kts 131°
2026-05-07 17:19 34.51844 -77.87956 2433 ft 277 kts 131°
2026-05-07 17:20 34.50726 -77.86070 2428 ft 275 kts 132°
2026-05-07 17:20 34.49603 -77.84187 2427 ft 276 kts 132°
2026-05-07 17:20 34.48472 -77.82291 2426 ft 277 kts 131°
2026-05-07 17:20 34.47370 -77.80415 2432 ft 276 kts 131°
2026-05-07 17:21 34.46248 -77.78493 2438 ft 276 kts 131°
2026-05-07 17:21 34.45164 -77.76636 2436 ft 262 kts 131°
2026-05-07 17:21 34.44163 -77.74918 2441 ft 242 kts 133°
2026-05-07 17:21 34.43108 -77.73484 2423 ft 213 kts 154°
2026-05-07 17:22 34.41824 -77.72834 2461 ft 191 kts 182°
2026-05-07 17:22 34.40541 -77.72902 2444 ft 180 kts 201°
2026-05-07 17:22 34.39427 -77.73491 2425 ft 173 kts 223°
2026-05-07 17:22 34.38529 -77.74466 2416 ft 172 kts 225°
2026-05-07 17:23 34.37676 -77.75449 2417 ft 172 kts 230°
2026-05-07 17:23 34.36872 -77.76526 2419 ft 173 kts 230°
2026-05-07 17:23 34.36071 -77.77609 2431 ft 170 kts 230°
2026-05-07 17:23 34.35279 -77.78690 2222 ft 173 kts 230°
2026-05-07 17:24 34.34489 -77.79746 2013 ft 168 kts 230°
2026-05-07 17:24 34.33727 -77.80793 1790 ft 160 kts 230°
2026-05-07 17:24 34.33001 -77.81775 1578 ft 156 kts 231°
2026-05-07 17:24 34.32292 -77.82746 1376 ft 154 kts 230°
2026-05-07 17:25 34.31581 -77.83707 1185 ft 148 kts 231°
2026-05-07 17:25 34.30922 -77.84600 987 ft 134 kts 230°
2026-05-07 17:25 34.30305 -77.85446 808 ft 134 kts 230°
2026-05-07 17:25 34.29677 -77.86295 639 ft 137 kts 231°
2026-05-07 17:26 34.29039 -77.87161 445 ft 137 kts 231°
2026-05-07 17:26 34.28393 -77.88032 278 ft 139 kts 231°
2026-05-07 17:26 34.27734 -77.88916 105 ft 143 kts 230°
2026-05-07 17:26 34.27088 -77.89790 29 ft 123 kts 229°
2026-05-07 17:27 34.26662 -77.90388 28 ft 67 kts 228°
2026-05-07 17:27 34.26442 -77.90681 24 ft 33 kts 230°
2026-05-07 17:27 34.26429 -77.90823 27 ft 4 kts 305°
2026-05-07 17:27 34.26445 -77.90849 27 ft 10 kts 306°
2026-05-07 17:28 34.26483 -77.90926 28 ft 11 kts 283°
2026-05-07 17:28 34.26446 -77.91012 27 ft 11 kts 247°
2026-05-07 17:28 34.26491 -77.91097 28 ft 13 kts 316°
2026-05-07 17:28 34.26564 -77.91122 28 ft 12 kts 70°
2026-05-07 17:29 34.26510 -77.91036 28 ft 13 kts 137°
2026-05-07 17:29 34.26487 -77.90928 28 ft 15 kts 60°
2026-05-07 17:29 34.26563 -77.90826 30 ft 17 kts 46°
2026-05-07 17:29 34.26663 -77.90776 31 ft 12 kts 326°
2026-05-07 17:30 34.26700 -77.90829 32 ft 4 kts 296°
2026-05-07 17:30 34.26700 -77.90854 32 ft 0 kts 248°